| time (UTC) | temp F | wind direction | speed knots | gust knots | rain 1hr in | rain 24hr in | rain mn in | humidity % | barometer mb |
| 20260509124154 | 55 | 277 | 1.7 | 2.6 | 0.00 | 0.00 | 0.00 | 83 | 1004.0 |
| 20260509123652 | 55 | 266 | 2.6 | 4.3 | 0.00 | 0.00 | 0.00 | 84 | 1003.9 |
| 20260509123149 | 55 | 240 | 1.7 | 1.7 | 0.00 | 0.00 | 0.00 | 85 | 1003.8 |
| 20260509122644 | 55 | 228 | 2.6 | 2.6 | 0.00 | 0.00 | 0.00 | 85 | 1003.6 |
| 20260509122141 | 54 | 229 | 4.3 | 5.2 | 0.00 | 0.00 | 0.00 | 86 | 1004.0 |
| 20260509121638 | 54 | 233 | 4.3 | 5.2 | 0.00 | 0.00 | 0.00 | 86 | 1003.5 |
| 20260509121136 | 54 | 189 | 3.5 | 6.1 | 0.00 | 0.00 | 0.00 | 86 | 1003.8 |
| 20260509120634 | 54 | 245 | 3.5 | 6.1 | 0.00 | 0.00 | 0.00 | 87 | 1003.9 |
| 20260509120132 | 54 | 253 | 3.5 | 6.1 | 0.00 | 0.00 | 0.00 | 87 | 1003.7 |
| 20260509115629 | 53 | 210 | 2.6 | 5.2 | 0.00 | 0.00 | 0.00 | 87 | 1003.8 |
| 20260509115127 | 53 | 184 | 3.5 | 5.2 | 0.00 | 0.00 | 0.00 | 87 | 1003.7 |
| 20260509114624 | 53 | 259 | 3.5 | 4.3 | 0.00 | 0.00 | 0.00 | 88 | 1003.7 |
| 20260509114123 | 53 | 230 | 2.6 | 4.3 | 0.00 | 0.00 | 0.00 | 88 | 1004.0 |
| 20260509113621 | 53 | 251 | 1.7 | 1.7 | 0.00 | 0.00 | 0.00 | 88 | 1003.8 |
| 20260509113118 | 53 | 249 | 1.7 | 2.6 | 0.00 | 0.00 | 0.00 | 89 | 1003.6 |
| 20260509112614 | 53 | 266 | 3.5 | 5.2 | 0.00 | 0.00 | 0.00 | 89 | 1003.5 |
| 20260509112112 | 53 | 214 | 4.3 | 6.1 | 0.00 | 0.00 | 0.00 | 89 | 1003.2 |
| 20260509111609 | 53 | 213 | 1.7 | 1.7 | 0.00 | 0.00 | 0.00 | 89 | 1003.1 |
| 20260509111106 | 53 | 229 | 4.3 | 5.2 | 0.00 | 0.00 | 0.00 | 89 | 1003.3 |
| 20260509110603 | 53 | 247 | 2.6 | 2.6 | 0.00 | 0.00 | 0.00 | 89 | 1003.2 |
| 20260509110100 | 53 | 235 | 3.5 | 5.2 | 0.00 | 0.00 | 0.00 | 89 | 1003.3 |
| 20260509105558 | 53 | 244 | 2.6 | 5.2 | 0.00 | 0.00 | 0.00 | 89 | 1003.2 |
| 20260509105055 | 53 | 215 | 2.6 | 5.2 | 0.00 | 0.00 | 0.00 | 89 | 1003.0 |
| 20260509104552 | 53 | 232 | 3.5 | 5.2 | 0.00 | 0.00 | 0.00 | 89 | 1003.3 |
| 20260509104049 | 53 | 230 | 1.7 | 4.3 | 0.00 | 0.00 | 0.00 | 89 | 1003.2 |
| 20260509103547 | 53 | 215 | 2.6 | 4.3 | 0.00 | 0.00 | 0.00 | 89 | 1003.2 |
| 20260509103045 | 53 | 222 | 2.6 | 4.3 | 0.00 | 0.00 | 0.00 | 88 | 1003.1 |
| 20260509102542 | 53 | 229 | 2.6 | 2.6 | 0.00 | 0.00 | 0.00 | 88 | 1003.3 |
| 20260509102038 | 53 | 241 | 2.6 | 2.6 | 0.00 | 0.00 | 0.00 | 88 | 1003.3 |
| 20260509101535 | 53 | 226 | 1.7 | 2.6 | 0.00 | 0.00 | 0.00 | 88 | 1003.4 |
| 20260509101032 | 53 | 227 | 0.9 | 0.9 | 0.00 | 0.00 | 0.00 | 88 | 1003.2 |
| 20260509100529 | 54 | 242 | 3.5 | 4.3 | 0.00 | 0.00 | 0.00 | 87 | 1003.5 |
| 20260509100026 | 54 | 228 | 3.5 | 4.3 | 0.00 | 0.00 | 0.00 | 87 | 1003.7 |
| 20260509095523 | 54 | 265 | 1.7 | 2.6 | 0.00 | 0.00 | 0.00 | 87 | 1003.5 |
| 20260509095020 | 54 | 225 | 3.5 | 4.3 | 0.00 | 0.00 | 0.00 | 88 | 1003.4 |
| 20260509094516 | 54 | 251 | 2.6 | 2.6 | 0.00 | 0.00 | 0.00 | 87 | 1003.5 |
| 20260509094014 | 54 | 209 | 4.3 | 6.1 | 0.00 | 0.00 | 0.00 | 87 | 1003.7 |
| 20260509093512 | 54 | 230 | 2.6 | 2.6 | 0.00 | 0.00 | 0.00 | 87 | 1003.7 |
| 20260509093009 | 54 | 237 | 1.7 | 2.6 | 0.00 | 0.00 | 0.00 | 87 | 1003.6 |
| 20260509092507 | 54 | 197 | 2.6 | 2.6 | 0.00 | 0.00 | 0.00 | 87 | 1003.6 |
| 20260509092005 | 54 | 202 | 0.9 | 1.7 | 0.00 | 0.00 | 0.00 | 87 | 1004.0 |
| 20260509091502 | 54 | 238 | 2.6 | 5.2 | 0.00 | 0.00 | 0.00 | 87 | 1004.0 |
| 20260509090959 | 54 | 218 | 5.2 | 6.1 | 0.00 | 0.00 | 0.00 | 87 | 1003.9 |
| 20260509090456 | 54 | 243 | 4.3 | 5.2 | 0.00 | 0.00 | 0.00 | 86 | 1004.1 |
| 20260509085953 | 54 | 224 | 3.5 | 5.2 | 0.00 | 0.00 | 0.00 | 86 | 1004.1 |
| 20260509085450 | 54 | 228 | 4.3 | 6.1 | 0.00 | 0.00 | 0.00 | 86 | 1004.2 |
| 20260509084946 | 54 | 228 | 2.6 | 4.3 | 0.00 | 0.00 | 0.00 | 86 | 1004.2 |
| 20260509084443 | 54 | 242 | 2.6 | 2.6 | 0.00 | 0.00 | 0.00 | 86 | 1004.1 |
| 20260509083941 | 54 | 224 | 3.5 | 4.3 | 0.00 | 0.00 | 0.00 | 86 | 1003.9 |
| 20260509083438 | 54 | 265 | 2.6 | 2.6 | 0.00 | 0.00 | 0.00 | 86 | 1004.1 |
| 20260509082929 | 54 | 227 | 2.6 | 4.3 | 0.00 | 0.00 | 0.00 | 85 | 1004.1 |
| 20260509082426 | 54 | 222 | 3.5 | 5.2 | 0.00 | 0.00 | 0.00 | 85 | 1004.0 |
| 20260509081923 | 54 | 225 | 4.3 | 6.1 | 0.00 | 0.00 | 0.00 | 85 | 1004.0 |
| 20260509081420 | 54 | 229 | 3.5 | 4.3 | 0.00 | 0.00 | 0.00 | 85 | 1003.7 |
| 20260509080917 | 54 | 227 | 4.3 | 7.0 | 0.00 | 0.00 | 0.00 | 84 | 1003.9 |
| 20260509080415 | 54 | 213 | 6.1 | 7.0 | 0.00 | 0.00 | 0.00 | 84 | 1004.0 |
| 20260509075913 | 54 | 234 | 0.9 | 0.9 | 0.00 | 0.00 | 0.00 | 84 | 1003.9 |
| 20260509075410 | 54 | 228 | 0.9 | 1.7 | 0.00 | 0.00 | 0.00 | 84 | 1004.0 |
| 20260509074907 | 54 | 230 | 2.6 | 2.6 | 0.00 | 0.00 | 0.00 | 84 | 1004.0 |
| 20260509074405 | 55 | 225 | 3.5 | 5.2 | 0.00 | 0.00 | 0.00 | 83 | 1004.0 |
| 20260509073901 | 55 | 237 | 2.6 | 4.3 | 0.00 | 0.00 | 0.00 | 83 | 1004.3 |
| 20260509073358 | 55 | 215 | 4.3 | 5.2 | 0.00 | 0.00 | 0.00 | 83 | 1004.0 |
| 20260509072855 | 55 | 244 | 2.6 | 2.6 | 0.00 | 0.00 | 0.00 | 83 | 1004.3 |
| 20260509072351 | 55 | 235 | 2.6 | 2.6 | 0.00 | 0.00 | 0.00 | 82 | 1004.4 |
| 20260509071848 | 55 | 234 | 2.6 | 2.6 | 0.00 | 0.00 | 0.00 | 82 | 1004.4 |
| 20260509071345 | 55 | 239 | 4.3 | 5.2 | 0.00 | 0.00 | 0.00 | 82 | 1004.6 |
| 20260509070842 | 55 | 247 | 2.6 | 2.6 | 0.00 | 0.00 | 0.00 | 82 | 1004.6 |
| 20260509070339 | 55 | 254 | 2.6 | 4.3 | 0.00 | 0.00 | 0.00 | 82 | 1004.6 |
| 20260509065835 | 55 | 225 | 2.6 | 4.3 | 0.00 | 0.00 | 0.00 | 82 | 1004.6 |
| 20260509065331 | 55 | 207 | 3.5 | 5.2 | 0.00 | 0.00 | 0.00 | 82 | 1004.7 |
| 20260509064827 | 55 | 226 | 1.7 | 1.7 | 0.00 | 0.00 | 0.00 | 82 | 1004.9 |
| 20260509064325 | 55 | 225 | 3.5 | 4.3 | 0.00 | 0.00 | 0.00 | 82 | 1004.6 |
| 20260509063822 | 55 | 228 | 3.5 | 4.3 | 0.00 | 0.00 | 0.00 | 82 | 1004.7 |
| 20260509063318 | 55 | 231 | 1.7 | 1.7 | 0.00 | 0.00 | 0.00 | 82 | 1004.9 |
| 20260509062815 | 55 | 217 | 3.5 | 4.3 | 0.00 | 0.00 | 0.00 | 82 | 1004.8 |
| 20260509062312 | 56 | 232 | 2.6 | 2.6 | 0.00 | 0.00 | 0.00 | 82 | 1004.9 |
| 20260509061810 | 56 | 210 | 3.5 | 5.2 | 0.00 | 0.00 | 0.00 | 82 | 1005.1 |
| 20260509061308 | 56 | 187 | 2.6 | 2.6 | 0.00 | 0.00 | 0.00 | 82 | 1005.0 |
| 20260509060804 | 56 | 236 | 2.6 | 5.2 | 0.00 | 0.00 | 0.00 | 82 | 1005.2 |
| 20260509060301 | 56 | 238 | 3.5 | 4.3 | 0.00 | 0.00 | 0.00 | 82 | 1005.3 |
| 20260509055757 | 56 | 204 | 4.3 | 6.1 | 0.00 | 0.00 | 0.00 | 81 | 1005.3 |
| 20260509055253 | 56 | 224 | 1.7 | 2.6 | 0.00 | 0.00 | 0.00 | 81 | 1005.0 |
| 20260509054750 | 56 | 270 | 3.5 | 4.3 | 0.00 | 0.00 | 0.00 | 81 | 1005.4 |
| 20260509054247 | 56 | 247 | 2.6 | 4.3 | 0.00 | 0.00 | 0.00 | 81 | 1005.1 |
| 20260509053745 | 56 | 259 | 2.6 | 2.6 | 0.00 | 0.00 | 0.00 | 81 | 1005.3 |
| 20260509053242 | 57 | 221 | 1.7 | 1.7 | 0.00 | 0.00 | 0.00 | 81 | 1005.0 |
| 20260509052740 | 57 | 238 | 3.5 | 5.2 | 0.00 | 0.00 | 0.00 | 80 | 1005.1 |
| 20260509052237 | 57 | 225 | 4.3 | 5.2 | 0.00 | 0.00 | 0.00 | 80 | 1005.2 |
| 20260509051735 | 57 | 232 | 4.3 | 6.1 | 0.00 | 0.00 | 0.00 | 80 | 1005.2 |
| 20260509051233 | 57 | 241 | 4.3 | 7.0 | 0.00 | 0.00 | 0.00 | 79 | 1005.2 |
| 20260509050729 | 57 | 230 | 4.3 | 5.2 | 0.00 | 0.00 | 0.00 | 79 | 1005.4 |
| 20260509050225 | 57 | 248 | 3.5 | 4.3 | 0.00 | 0.00 | 0.00 | 78 | 1005.2 |
| 20260509045722 | 57 | 248 | 3.5 | 5.2 | 0.00 | 0.00 | 0.00 | 78 | 1005.1 |
| 20260509045219 | 57 | 228 | 6.1 | 7.8 | 0.00 | 0.00 | 0.00 | 78 | 1005.3 |
| 20260509044716 | 57 | 225 | 3.5 | 5.2 | 0.00 | 0.00 | 0.00 | 77 | 1005.4 |
| 20260509044214 | 57 | 227 | 3.5 | 4.3 | 0.00 | 0.00 | 0.00 | 77 | 1005.5 |
| 20260509043710 | 58 | 195 | 3.5 | 5.2 | 0.00 | 0.00 | 0.00 | 76 | 1005.4 |
| 20260509043206 | 58 | 239 | 2.6 | 2.6 | 0.00 | 0.00 | 0.00 | 76 | 1005.2 |
| 20260509042703 | 58 | 186 | 5.2 | 7.0 | 0.00 | 0.00 | 0.00 | 75 | 1005.3 |
| 20260509042158 | 58 | 213 | 2.6 | 4.3 | 0.00 | 0.00 | 0.00 | 74 | 1005.6 |
| 20260509041655 | 58 | 242 | 7.0 | 7.8 | 0.00 | 0.00 | 0.00 | 74 | 1005.4 |
| 20260509041153 | 58 | 235 | 4.3 | 6.1 | 0.00 | 0.00 | 0.00 | 73 | 1005.4 |
| 20260509040651 | 58 | 215 | 2.6 | 4.3 | 0.00 | 0.00 | 0.00 | 72 | 1005.5 |
| 20260509040148 | 59 | 216 | 4.3 | 5.2 | 0.00 | 0.00 | 0.00 | 72 | 1005.6 |
| 20260509035644 | 59 | 241 | 4.3 | 5.2 | 0.00 | 0.00 | 0.00 | 71 | 1005.5 |
| 20260509035141 | 59 | 222 | 1.7 | 1.7 | 0.00 | 0.00 | 0.00 | 71 | 1005.8 |
| 20260509034639 | 59 | 208 | 3.5 | 5.2 | 0.00 | 0.00 | 0.00 | 71 | 1005.4 |
| 20260509034136 | 59 | 200 | 4.3 | 6.1 | 0.00 | 0.00 | 0.00 | 71 | 1005.5 |
| 20260509033633 | 58 | 233 | 1.7 | 2.6 | 0.00 | 0.00 | 0.00 | 72 | 1005.8 |
| 20260509033130 | 58 | 235 | 1.7 | 1.7 | 0.00 | 0.00 | 0.00 | 72 | 1005.6 |
| 20260509032627 | 58 | 216 | 2.6 | 4.3 | 0.00 | 0.00 | 0.00 | 72 | 1005.4 |
| 20260509032124 | 58 | 194 | 4.3 | 5.2 | 0.00 | 0.00 | 0.00 | 71 | 1005.5 |
| 20260509031622 | 58 | 238 | 1.7 | 1.7 | 0.00 | 0.00 | 0.00 | 71 | 1005.8 |
| 20260509031119 | 57 | 195 | 2.6 | 2.6 | 0.00 | 0.00 | 0.00 | 71 | 1005.4 |
| 20260509030617 | 57 | 172 | 1.7 | 2.6 | 0.00 | 0.00 | 0.00 | 72 | 1005.5 |
| 20260509030114 | 57 | 188 | 5.2 | 7.0 | 0.00 | 0.00 | 0.00 | 72 | 1005.6 |
| 20260509025610 | 57 | 189 | 2.6 | 4.3 | 0.00 | 0.00 | 0.00 | 71 | 1005.4 |
| 20260509025106 | 57 | 213 | 3.5 | 4.3 | 0.00 | 0.00 | 0.00 | 71 | 1005.9 |
| 20260509024601 | 57 | 154 | 1.7 | 1.7 | 0.00 | 0.00 | 0.00 | 70 | 1005.9 |
| 20260509024058 | 57 | 207 | 3.5 | 4.3 | 0.00 | 0.00 | 0.00 | 70 | 1005.8 |
| 20260509023556 | 57 | 176 | 3.5 | 4.3 | 0.00 | 0.00 | 0.00 | 69 | 1006.0 |
| 20260509023052 | 57 | 175 | 3.5 | 5.2 | 0.00 | 0.00 | 0.00 | 68 | 1005.9 |
| 20260509022548 | 57 | 173 | 1.7 | 2.6 | 0.00 | 0.00 | 0.00 | 68 | 1006.0 |
| 20260509022047 | 57 | 199 | 2.6 | 4.3 | 0.00 | 0.00 | 0.00 | 67 | 1005.9 |
| 20260509021543 | 57 | 195 | 3.5 | 5.2 | 0.00 | 0.00 | 0.00 | 67 | 1006.0 |
| 20260509021040 | 57 | 171 | 3.5 | 4.3 | 0.00 | 0.00 | 0.00 | 66 | 1005.8 |
| 20260509020539 | 57 | 211 | 0.9 | 1.7 | 0.00 | 0.00 | 0.00 | 66 | 1005.6 |
| 20260509020035 | 57 | 194 | 2.6 | 2.6 | 0.00 | 0.00 | 0.00 | 66 | 1005.6 |
| 20260509015534 | 57 | 186 | 1.7 | 1.7 | 0.00 | 0.00 | 0.00 | 65 | 1005.6 |
| 20260509015031 | 57 | 225 | 0.9 | 0.9 | 0.00 | 0.00 | 0.00 | 65 | 1005.5 |
| 20260509014528 | 57 | 199 | 1.7 | 1.7 | 0.00 | 0.00 | 0.00 | 65 | 1005.6 |
| 20260509014025 | 56 | 203 | 2.6 | 2.6 | 0.00 | 0.00 | 0.00 | 65 | 1005.6 |
| 20260509013522 | 56 | 200 | 1.7 | 1.7 | 0.00 | 0.00 | 0.00 | 65 | 1005.8 |
| 20260509013017 | 56 | 186 | 5.2 | 6.1 | 0.00 | 0.00 | 0.00 | 65 | 1005.9 |
| 20260509012514 | 56 | 170 | 4.3 | 7.0 | 0.00 | 0.00 | 0.00 | 65 | 1005.9 |
| 20260509012011 | 57 | 183 | 4.3 | 5.2 | 0.00 | 0.00 | 0.00 | 65 | 1005.6 |
| 20260509011509 | 57 | 190 | 1.7 | 1.7 | 0.00 | 0.00 | 0.00 | 65 | 1005.4 |
| 20260509011006 | 57 | 188 | 2.6 | 4.3 | 0.00 | 0.00 | 0.00 | 64 | 1005.5 |
| 20260509010504 | 57 | 163 | 3.5 | 6.1 | 0.00 | 0.00 | 0.00 | 64 | 1005.5 |
| 20260509010000 | 57 | 189 | 2.6 | 4.3 | 0.00 | 0.00 | 0.00 | 64 | 1005.8 |
| 20260509005458 | 57 | 103 | 3.5 | 4.3 | 0.00 | 0.00 | 0.00 | 63 | 1005.6 |
| 20260509004957 | 57 | 131 | 2.6 | 4.3 | 0.00 | 0.00 | 0.00 | 62 | 1005.5 |
| 20260509004454 | 57 | 181 | 1.7 | 2.6 | 0.00 | 0.00 | 0.00 | 62 | 1005.6 |
| 20260509003952 | 58 | 220 | 3.5 | 5.2 | 0.00 | 0.00 | 0.00 | 62 | 1005.8 |
| 20260509003450 | 58 | 190 | 2.6 | 2.6 | 0.00 | 0.00 | 0.00 | 61 | 1005.8 |
| 20260509002946 | 58 | 188 | 3.5 | 4.3 | 0.00 | 0.00 | 0.00 | 61 | 1005.5 |
| 20260509002444 | 58 | 193 | 1.7 | 1.7 | 0.00 | 0.00 | 0.00 | 61 | 1005.9 |
| 20260509001941 | 58 | 149 | 3.5 | 5.2 | 0.00 | 0.00 | 0.00 | 60 | 1005.9 |
| 20260509001438 | 58 | 209 | 2.6 | 4.3 | 0.00 | 0.00 | 0.00 | 61 | 1005.8 |
| 20260509000935 | 59 | 184 | 0.9 | 1.7 | 0.00 | 0.00 | 0.00 | 61 | 1005.8 |
| 20260509000433 | 60 | 200 | 0.9 | 1.7 | 0.00 | 0.00 | 0.00 | 60 | 1006.0 |
| 20260508235928 | 60 | 197 | 1.7 | 1.7 | 0.00 | 0.00 | 0.00 | 60 | 1006.0 |
| 20260508235426 | 60 | 217 | 2.6 | 2.6 | 0.00 | 0.00 | 0.00 | 59 | 1006.0 |
| 20260508234922 | 61 | 240 | 0.0 | 0.0 | 0.00 | 0.00 | 0.00 | 59 | 1006.0 |
| 20260508234420 | 61 | 248 | 0.0 | 0.9 | 0.00 | 0.00 | 0.00 | 59 | 1005.8 |
| 20260508233917 | 61 | 170 | 1.7 | 1.7 | 0.00 | 0.00 | 0.00 | 59 | 1005.8 |
| 20260508233417 | 61 | 176 | 1.7 | 1.7 | 0.00 | 0.00 | 0.00 | 59 | 1005.9 |
| 20260508232913 | 61 | 51 | 0.0 | 0.9 | 0.00 | 0.00 | 0.00 | 59 | 1005.9 |
| 20260508232410 | 62 | 255 | 0.0 | 0.0 | 0.00 | 0.00 | 0.00 | 58 | 1006.1 |
| 20260508231908 | 61 | 166 | 0.9 | 0.9 | 0.00 | 0.00 | 0.00 | 59 | 1006.0 |
| 20260508231404 | 62 | 174 | 1.7 | 1.7 | 0.00 | 0.00 | 0.00 | 59 | 1006.2 |
| 20260508230901 | 62 | 190 | 1.7 | 1.7 | 0.00 | 0.00 | 0.00 | 59 | 1005.8 |
| 20260508230358 | 61 | 106 | 0.0 | 0.9 | 0.00 | 0.00 | 0.00 | 59 | 1005.9 |
| 20260508225855 | 62 | 230 | 0.0 | 0.0 | 0.00 | 0.00 | 0.00 | 59 | 1006.1 |
| 20260508225351 | 62 | 175 | 1.7 | 2.6 | 0.00 | 0.00 | 0.00 | 58 | 1006.0 |
| 20260508224849 | 62 | 178 | 1.7 | 2.6 | 0.00 | 0.00 | 0.00 | 58 | 1006.4 |
| 20260508224347 | 61 | 218 | 0.9 | 0.9 | 0.00 | 0.00 | 0.00 | 59 | 1006.2 |
| 20260508223844 | 62 | 241 | 0.9 | 0.9 | 0.00 | 0.00 | 0.00 | 58 | 1006.2 |
| 20260508223341 | 63 | 213 | 0.9 | 0.9 | 0.00 | 0.00 | 0.00 | 58 | 1006.2 |
| 20260508222839 | 62 | 241 | 1.7 | 2.6 | 0.00 | 0.00 | 0.00 | 59 | 1006.3 |
| 20260508222336 | 61 | 168 | 3.5 | 5.2 | 0.00 | 0.00 | 0.00 | 61 | 1006.3 |
| 20260508221832 | 62 | 204 | 1.7 | 1.7 | 0.00 | 0.00 | 0.00 | 60 | 1006.2 |
| 20260508221328 | 62 | 60 | 0.9 | 0.9 | 0.00 | 0.00 | 0.00 | 60 | 1006.4 |
| 20260508220825 | 61 | 100 | 0.9 | 0.9 | 0.00 | 0.00 | 0.00 | 60 | 1006.2 |
| 20260508220321 | 60 | 79 | 2.6 | 2.6 | 0.00 | 0.00 | 0.00 | 62 | 1006.4 |
| 20260508215818 | 60 | 49 | 4.3 | 6.1 | 0.00 | 0.00 | 0.00 | 62 | 1006.5 |
| 20260508215314 | 61 | 29 | 2.6 | 2.6 | 0.00 | 0.00 | 0.00 | 62 | 1006.6 |
| 20260508214811 | 61 | 47 | 0.9 | 1.7 | 0.00 | 0.00 | 0.00 | 62 | 1006.4 |
| 20260508214308 | 61 | 72 | 2.6 | 4.3 | 0.00 | 0.00 | 0.00 | 63 | 1006.5 |
| 20260508213805 | 63 | 87 | 2.6 | 5.2 | 0.00 | 0.00 | 0.00 | 60 | 1006.5 |
| 20260508213302 | 63 | 83 | 1.7 | 1.7 | 0.00 | 0.00 | 0.00 | 60 | 1006.6 |
| 20260508212758 | 61 | 71 | 1.7 | 2.6 | 0.00 | 0.00 | 0.00 | 62 | 1006.6 |
| 20260508212254 | 62 | 30 | 2.6 | 2.6 | 0.00 | 0.00 | 0.00 | 62 | 1006.6 |
| 20260508211750 | 62 | 24 | 1.7 | 1.7 | 0.00 | 0.00 | 0.00 | 61 | 1006.5 |
| 20260508211246 | 61 | 106 | 2.6 | 4.3 | 0.00 | 0.00 | 0.00 | 63 | 1006.4 |
| 20260508210744 | 61 | 34 | 3.5 | 5.2 | 0.00 | 0.00 | 0.00 | 62 | 1006.8 |
| 20260508210241 | 62 | 27 | 3.5 | 5.2 | 0.00 | 0.00 | 0.00 | 62 | 1006.4 |
| 20260508205737 | 61 | 29 | 2.6 | 4.3 | 0.00 | 0.00 | 0.00 | 64 | 1006.7 |
| 20260508205234 | 62 | 42 | 4.3 | 6.1 | 0.00 | 0.00 | 0.00 | 62 | 1006.7 |
| 20260508204730 | 64 | 75 | 4.3 | 6.1 | 0.00 | 0.00 | 0.00 | 59 | 1006.8 |
| 20260508204227 | 65 | 48 | 2.6 | 2.6 | 0.00 | 0.00 | 0.00 | 58 | 1006.7 |
| 20260508203723 | 63 | 169 | 2.6 | 2.6 | 0.00 | 0.00 | 0.00 | 61 | 1006.9 |
| 20260508203219 | 64 | 172 | 7.8 | 9.6 | 0.00 | 0.00 | 0.00 | 61 | 1006.9 |
| 20260508202715 | 64 | 191 | 4.3 | 6.1 | 0.00 | 0.00 | 0.00 | 58 | 1007.0 |
| 20260508202213 | 64 | 145 | 2.6 | 2.6 | 0.00 | 0.00 | 0.00 | 57 | 1007.0 |
| 20260508201709 | 66 | 303 | 0.9 | 0.9 | 0.00 | 0.00 | 0.00 | 55 | 1007.2 |
| 20260508201206 | 66 | 171 | 3.5 | 6.1 | 0.00 | 0.00 | 0.00 | 52 | 1007.1 |
| 20260508200703 | 66 | 171 | 2.6 | 2.6 | 0.00 | 0.00 | 0.00 | 52 | 1007.3 |
| 20260508200159 | 64 | 53 | 0.9 | 0.9 | 0.00 | 0.00 | 0.00 | 54 | 1007.5 |
| 20260508195656 | 64 | 347 | 0.0 | 0.9 | 0.00 | 0.00 | 0.00 | 53 | 1007.5 |
| 20260508195152 | 63 | 201 | 2.6 | 2.6 | 0.00 | 0.00 | 0.00 | 54 | 1007.4 |
| 20260508194649 | 63 | 68 | 2.6 | 4.3 | 0.00 | 0.00 | 0.00 | 56 | 1007.6 |
| 20260508194146 | 65 | 50 | 3.5 | 4.3 | 0.00 | 0.00 | 0.00 | 54 | 1007.6 |
| 20260508193642 | 63 | 65 | 3.5 | 5.2 | 0.00 | 0.00 | 0.00 | 54 | 1007.8 |
| 20260508193139 | 63 | 92 | 3.5 | 5.2 | 0.00 | 0.00 | 0.00 | 53 | 1007.6 |
| 20260508192636 | 64 | 60 | 4.3 | 5.2 | 0.00 | 0.00 | 0.00 | 52 | 1007.8 |
| 20260508192133 | 64 | 69 | 2.6 | 4.3 | 0.00 | 0.00 | 0.00 | 52 | 1007.8 |
| 20260508191630 | 64 | 112 | 3.5 | 4.3 | 0.00 | 0.00 | 0.00 | 54 | 1008.0 |
| 20260508191126 | 64 | 314 | 0.9 | 1.7 | 0.00 | 0.00 | 0.00 | 53 | 1008.1 |
| 20260508190624 | 63 | 174 | 0.9 | 1.7 | 0.00 | 0.00 | 0.00 | 55 | 1008.1 |
| 20260508190120 | 63 | 75 | 3.5 | 4.3 | 0.00 | 0.00 | 0.00 | 56 | 1008.0 |
| 20260508185617 | 63 | 40 | 4.3 | 6.1 | 0.00 | 0.00 | 0.00 | 58 | 1008.0 |
| 20260508185115 | 63 | 60 | 2.6 | 4.3 | 0.00 | 0.00 | 0.00 | 55 | 1008.2 |
| 20260508184612 | 64 | 64 | 3.5 | 6.1 | 0.00 | 0.00 | 0.00 | 54 | 1008.2 |
| 20260508184109 | 65 | 144 | 0.9 | 1.7 | 0.00 | 0.00 | 0.00 | 53 | 1008.3 |
| 20260508183605 | 64 | 271 | 0.9 | 1.7 | 0.00 | 0.00 | 0.00 | 52 | 1008.3 |
| 20260508183101 | 64 | 55 | 3.5 | 5.2 | 0.00 | 0.00 | 0.00 | 51 | 1008.4 |
| 20260508182558 | 64 | 173 | 2.6 | 2.6 | 0.00 | 0.00 | 0.00 | 51 | 1008.7 |
| 20260508182055 | 63 | 84 | 2.6 | 2.6 | 0.00 | 0.00 | 0.00 | 51 | 1008.5 |
| 20260508181550 | 62 | 121 | 3.5 | 4.3 | 0.00 | 0.00 | 0.00 | 52 | 1008.2 |
| 20260508181048 | 62 | 78 | 3.5 | 4.3 | 0.00 | 0.00 | 0.00 | 50 | 1008.5 |
| 20260508180544 | 65 | 125 | 2.6 | 5.2 | 0.00 | 0.00 | 0.00 | 47 | 1008.5 |
| 20260508180041 | 64 | 203 | 2.6 | 5.2 | 0.00 | 0.00 | 0.00 | 46 | 1008.4 |
| 20260508175538 | 64 | 356 | 1.7 | 2.6 | 0.00 | 0.00 | 0.00 | 47 | 1008.8 |
| 20260508175035 | 63 | 232 | 1.7 | 1.7 | 0.00 | 0.00 | 0.00 | 48 | 1009.0 |
| 20260508174533 | 64 | 19 | 1.7 | 2.6 | 0.00 | 0.00 | 0.00 | 47 | 1008.9 |
| 20260508174029 | 64 | 115 | 3.5 | 5.2 | 0.00 | 0.00 | 0.00 | 47 | 1009.2 |
| 20260508173526 | 65 | 291 | 0.9 | 0.9 | 0.00 | 0.00 | 0.00 | 45 | 1009.3 |
| 20260508173022 | 64 | 193 | 0.9 | 1.7 | 0.00 | 0.00 | 0.00 | 46 | 1009.2 |
| 20260508172519 | 64 | 196 | 1.7 | 2.6 | 0.00 | 0.00 | 0.00 | 41 | 1009.3 |
| 20260508172016 | 64 | 84 | 3.5 | 5.2 | 0.00 | 0.00 | 0.00 | 40 | 1009.4 |
| 20260508171512 | 64 | 171 | 1.7 | 4.3 | 0.00 | 0.00 | 0.00 | 39 | 1009.5 |
| 20260508171009 | 64 | 154 | 3.5 | 4.3 | 0.00 | 0.00 | 0.00 | 42 | 1009.4 |
| 20260508170506 | 64 | 49 | 2.6 | 2.6 | 0.00 | 0.00 | 0.00 | 39 | 1009.5 |
| 20260508170004 | 64 | 185 | 0.9 | 1.7 | 0.00 | 0.00 | 0.00 | 34 | 1009.6 |
| 20260508165501 | 63 | 66 | 3.5 | 5.2 | 0.00 | 0.00 | 0.00 | 34 | 1009.7 |
| 20260508164956 | 63 | 34 | 0.9 | 0.9 | 0.00 | 0.00 | 0.00 | 35 | 1009.8 |
| 20260508164454 | 64 | 17 | 1.7 | 1.7 | 0.00 | 0.00 | 0.00 | 33 | 1009.9 |
| 20260508163950 | 63 | 131 | 0.9 | 0.9 | 0.00 | 0.00 | 0.00 | 34 | 1009.8 |
| 20260508163448 | 61 | 113 | 4.3 | 5.2 | 0.00 | 0.00 | 0.00 | 38 | 1010.2 |
| 20260508162944 | 62 | 168 | 3.5 | 5.2 | 0.00 | 0.00 | 0.00 | 45 | 1010.1 |
| 20260508162442 | 63 | 201 | 3.5 | 4.3 | 0.00 | 0.00 | 0.00 | 46 | 1010.1 |
| 20260508161938 | 63 | 338 | 0.9 | 0.9 | 0.00 | 0.00 | 0.00 | 45 | 1010.2 |
| 20260508161435 | 63 | 178 | 5.2 | 7.0 | 0.00 | 0.00 | 0.00 | 42 | 1010.1 |
| 20260508160932 | 63 | 178 | 3.5 | 4.3 | 0.00 | 0.00 | 0.00 | 48 | 1010.1 |
| 20260508160431 | 60 | 199 | 2.6 | 2.6 | 0.00 | 0.00 | 0.00 | 52 | 1010.2 |
| 20260508155927 | 63 | 134 | 2.6 | 2.6 | 0.00 | 0.00 | 0.00 | 50 | 1010.2 |
| 20260508155424 | 63 | 29 | 0.9 | 0.9 | 0.00 | 0.00 | 0.00 | 48 | 1010.3 |
| 20260508154921 | 62 | 262 | 0.9 | 0.9 | 0.00 | 0.00 | 0.00 | 48 | 1010.2 |
| 20260508154419 | 61 | 222 | 1.7 | 1.7 | 0.00 | 0.00 | 0.00 | 49 | 1010.3 |
| 20260508153915 | 61 | 223 | 1.7 | 1.7 | 0.00 | 0.00 | 0.00 | 51 | 1010.5 |
| 20260508153412 | 61 | 203 | 0.9 | 1.7 | 0.00 | 0.00 | 0.00 | 49 | 1010.5 |
| 20260508152908 | 61 | 215 | 3.5 | 4.3 | 0.00 | 0.00 | 0.00 | 52 | 1010.7 |
| 20260508152405 | 61 | 355 | 0.0 | 0.0 | 0.00 | 0.00 | 0.00 | 55 | 1010.4 |
| 20260508151902 | 61 | 213 | 1.7 | 1.7 | 0.00 | 0.00 | 0.00 | 55 | 1010.7 |
| 20260508151359 | 62 | 151 | 2.6 | 2.6 | 0.00 | 0.00 | 0.00 | 50 | 1010.7 |
| 20260508150855 | 60 | 302 | 1.7 | 1.7 | 0.00 | 0.00 | 0.00 | 55 | 1010.7 |
| 20260508150352 | 60 | 247 | 1.7 | 1.7 | 0.00 | 0.00 | 0.00 | 55 | 1011.0 |
| 20260508145848 | 60 | 191 | 1.7 | 1.7 | 0.00 | 0.00 | 0.00 | 55 | 1010.6 |
| 20260508145344 | 60 | 194 | 1.7 | 2.6 | 0.00 | 0.00 | 0.00 | 55 | 1010.5 |
| 20260508144841 | 58 | 235 | 0.9 | 0.9 | 0.00 | 0.00 | 0.00 | 57 | 1010.8 |
| 20260508144339 | 59 | 176 | 1.7 | 2.6 | 0.00 | 0.00 | 0.00 | 57 | 1010.6 |
| 20260508143836 | 58 | 199 | 1.7 | 2.6 | 0.00 | 0.00 | 0.00 | 59 | 1010.8 |
| 20260508143333 | 57 | 203 | 4.3 | 5.2 | 0.00 | 0.00 | 0.00 | 62 | 1010.8 |
| 20260508142830 | 57 | 213 | 2.6 | 4.3 | 0.00 | 0.00 | 0.00 | 62 | 1010.8 |
| 20260508142327 | 57 | 30 | 2.6 | 2.6 | 0.00 | 0.00 | 0.00 | 61 | 1010.7 |
| 20260508141823 | 55 | 209 | 2.6 | 2.6 | 0.00 | 0.00 | 0.00 | 63 | 1010.8 |
| 20260508141320 | 56 | 184 | 0.9 | 1.7 | 0.00 | 0.00 | 0.00 | 66 | 1011.0 |
| 20260508140817 | 56 | 218 | 1.7 | 2.6 | 0.00 | 0.00 | 0.00 | 67 | 1010.7 |
| 20260508140314 | 56 | 186 | 0.0 | 0.0 | 0.00 | 0.00 | 0.00 | 68 | 1010.8 |
| 20260508135810 | 56 | 172 | 1.7 | 1.7 | 0.00 | 0.00 | 0.00 | 68 | 1010.7 |
| 20260508135307 | 56 | 139 | 0.0 | 0.0 | 0.00 | 0.00 | 0.00 | 70 | 1010.7 |
| 20260508134803 | 56 | 161 | 0.9 | 0.9 | 0.00 | 0.00 | 0.00 | 70 | 1010.8 |
| 20260508134300 | 54 | 190 | 1.7 | 1.7 | 0.00 | 0.00 | 0.00 | 72 | 1010.7 |
| 20260508133756 | 54 | 179 | 0.9 | 0.9 | 0.00 | 0.00 | 0.00 | 72 | 1010.6 |
| 20260508133253 | 53 | 147 | 0.9 | 0.9 | 0.00 | 0.00 | 0.00 | 73 | 1010.6 |
| 20260508132751 | 53 | 149 | 1.7 | 1.7 | 0.00 | 0.00 | 0.00 | 73 | 1010.8 |
| 20260508132248 | 53 | 220 | 0.0 | 0.9 | 0.00 | 0.00 | 0.00 | 74 | 1010.9 |
| 20260508131744 | 53 | 173 | 0.9 | 1.7 | 0.00 | 0.00 | 0.00 | 75 | 1010.7 |
| 20260508131240 | 52 | 208 | 1.7 | 1.7 | 0.00 | 0.00 | 0.00 | 78 | 1010.6 |
| 20260508130737 | 51 | 246 | 0.0 | 0.0 | 0.00 | 0.00 | 0.00 | 80 | 1010.7 |
| 20260508130234 | 51 | 229 | 0.9 | 0.9 | 0.00 | 0.00 | 0.00 | 80 | 1011.0 |
| 20260508125729 | 51 | 216 | 1.7 | 1.7 | 0.00 | 0.00 | 0.00 | 80 | 1011.4 |
| 20260508125226 | 51 | 287 | 0.0 | 0.0 | 0.00 | 0.00 | 0.00 | 81 | 1010.9 |
| 20260508124725 | 50 | 291 | 0.0 | 0.9 | 0.00 | 0.00 | 0.00 | 83 | 1011.2 |